Location: Chipmunk Meadow
(41.1540°N, 122.8814°W)
Time: 13:59:07
(UTC+00:00)

H-2A R/B - Pass Details

Date: 13 April 2024
Orbit: 732 x 833 km, 98.2° (Epoch: 21 May)

Event Time Altitude Azimuth Distance (km) Brightness Sun altitude
Rises 11:59:27 0° 22° (NNE) 3,192 6.1 -17.4°
Reaches altitude 10° 12:01:56 10° 32° (NNE) 2,275 5.4 -17.0°
Maximum altitude 12:06:27 34° 97° (E) 1,244 3.6 -16.3°
Drops below altitude 10° 12:11:03 10° 162° (SSE) 2,314 4.4 -15.5°
Sets 12:13:35 0° 171° (S) 3,254 5.1 -15.1°
